Hebron, NE

11:27 PM CDT on June 28, 2017 (GMT -0500)
Hebron Municipal

Weather History for KHJH - April, 2013

Change the Weather History Date:

Monday, April 22, 2013

  Actual Average Record
Temperature  
Mean Temperature 46 °F -  
Max Temperature 58 °F 65 °F 92 °F (1989)
Min Temperature 34 °F 41 °F 27 °F (1992)
Degree Days  
Heating Degree Days 19    
Moisture  
Dew Point 41 °F    
Average Humidity 83    
Maximum Humidity 90    
Minimum Humidity 69    
Precipitation  
Precipitation 0.83 in - - ()
Sea Level Pressure  
Sea Level Pressure 30.05 in    
Wind  
Wind Speed 10 mph (ENE)    
Max Wind Speed 26 mph    
Max Gust Speed 37 mph    
Visibility 9 miles    
Events Rain , Thunderstorm    
Averages and records for this station are not official NWS values.
T = Trace of Precipitation, MM = Missing Value Source: NWS Daily Summary

Daily Weather History Graph

Daily Weather History Graph

Search for Another Location

Airport or City:

Trip Planner

Search our weather history database for the weather conditions in past years. The results will help you decide how hot, cold, wet, or windy it might be!

Date:

Astronomy

Apr. 22, 2013 Rise Set
Actual Time 6:41 AM CDT 8:16 PM CDT
Civil Twilight 6:13 AM CDT 8:45 PM CDT
Nautical Twilight 5:38 AM CDT 9:19 PM CDT
Astronomical Twilight 5:01 AM CDT 9:56 PM CDT
Moon 5:06 PM CDT (4/22) 4:37 AM CDT (4/22)
Length of Visible Light 14h 32m
Length of Day
13h 34m
Waxing Gibbous, 88% of the Moon is Illuminated
Apr 22
Waxing Gibbous
Apr 25
Full
May 2
Last Quarter
May 9
New
May 17
First Quarter

Hourly Weather History & Observations

Time (CDT) Temp. Windchill Dew Point Humidity Pressure Visibility Wind Dir Wind Speed Gust Speed Precip Events Conditions
12:15 AM 55.4 °F - 45.5 °F 69% 30.08 in 10.0 mi WNW 3.5 mph - 0.01 in Rain , Thunderstorm Light Thunderstorms and Rain
12:35 AM 54.9 °F - 45.7 °F 71% 30.08 in 10.0 mi North 6.9 mph - 0.01 in   Mostly Cloudy
12:55 AM 52.9 °F - 47.7 °F 82% 30.08 in 10.0 mi ENE 3.5 mph - 0.01 in   Mostly Cloudy
1:15 AM 52.7 °F - 48.6 °F 86% 30.09 in 10.0 mi North 5.8 mph - N/A Rain , Thunderstorm Light Thunderstorms and Rain
1:35 AM 52.7 °F - 48.7 °F 86% 30.08 in 4.0 mi NE 10.4 mph - 0.07 in Rain , Thunderstorm Rain
1:55 AM 52.2 °F - 49.1 °F 89% 30.06 in 10.0 mi ENE 13.8 mph - 0.07 in Rain , Thunderstorm Light Thunderstorms and Rain
2:15 AM 52.2 °F - 49.1 °F 89% 30.07 in 10.0 mi ENE 12.7 mph 17.3 mph N/A Thunderstorm Thunderstorm
2:35 AM 52.2 °F - 49.1 °F 89% 30.06 in 10.0 mi East 11.5 mph - N/A   Overcast
2:55 AM 52.3 °F - 49.1 °F 89% 30.05 in 10.0 mi East 8.1 mph - N/A   Overcast
3:15 AM 52.7 °F - 48.7 °F 86% 30.04 in 10.0 mi ESE 8.1 mph - N/A Thunderstorm Overcast
3:35 AM 52.3 °F - 48.9 °F 88% 30.04 in 10.0 mi East 5.8 mph - N/A   Overcast
3:55 AM 51.8 °F - 48.4 °F 88% 30.03 in 10.0 mi East 3.5 mph - N/A Thunderstorm Mostly Cloudy
4:15 AM 51.1 °F - 48.2 °F 90% 30.02 in 10.0 mi ESE 3.5 mph - N/A   Clear
4:35 AM 50.5 °F - 47.7 °F 90% 30.01 in 7.0 mi ESE 4.6 mph - N/A   Clear
4:55 AM 50.0 °F - 47.3 °F 90% 30.02 in 7.0 mi SE 4.6 mph - N/A   Mostly Cloudy
5:15 AM 50.5 °F - 47.5 °F 89% 30.02 in 10.0 mi Calm Calm - N/A   Overcast
5:35 AM 50.9 °F - 47.1 °F 87% 30.01 in 10.0 mi SE 8.1 mph - N/A   Overcast
5:55 AM 51.3 °F - 46.0 °F 82% 30.00 in 10.0 mi SSE 6.9 mph - N/A   Overcast
6:15 AM 51.8 °F - 45.5 °F 79% 30.00 in 10.0 mi SSE 10.4 mph - N/A Thunderstorm Thunderstorm
6:35 AM 51.8 °F - 45.5 °F 79% 30.00 in 10.0 mi South 6.9 mph - N/A Rain , Thunderstorm Light Thunderstorms and Rain
6:55 AM 51.1 °F - 45.5 °F 81% 30.01 in 10.0 mi South 5.8 mph - 0.01 in Rain Light Rain
7:15 AM 50.7 °F - 45.5 °F 82% 30.01 in 10.0 mi South 6.9 mph - 0.01 in Rain Rain
7:35 AM 50.0 °F - 45.7 °F 85% 30.00 in 7.0 mi SSE 4.6 mph - 0.04 in Rain Rain
7:55 AM 50.0 °F - 45.9 °F 86% 30.00 in 10.0 mi SSE 8.1 mph - 0.05 in Rain , Thunderstorm Light Thunderstorms and Rain
8:15 AM 50.4 °F - 45.9 °F 85% 30.00 in 10.0 mi SSE 6.9 mph - N/A   Light Drizzle
8:35 AM 50.7 °F - 46.0 °F 84% 30.00 in 10.0 mi SSE 6.9 mph - N/A Rain Light Rain
8:55 AM 51.4 °F - 46.4 °F 83% 30.00 in 10.0 mi South 5.8 mph - N/A Rain Light Rain
9:15 AM 51.3 °F - 46.6 °F 84% 29.99 in 10.0 mi South 9.2 mph - N/A   Drizzle
9:35 AM 51.8 °F - 47.1 °F 84% 29.96 in 10.0 mi SSE 12.7 mph - N/A Rain Light Rain
9:55 AM 52.7 °F - 47.8 °F 84% 29.96 in 10.0 mi SSE 10.4 mph - N/A   Overcast
10:15 AM 54.5 °F - 48.7 °F 81% 29.96 in 10.0 mi South 11.5 mph - N/A   Overcast
10:35 AM 56.3 °F - 50.2 °F 80% 29.95 in 10.0 mi SSE 10.4 mph - N/A   Overcast
10:55 AM 57.2 °F - 49.8 °F 76% 29.95 in 10.0 mi SE 10.4 mph - N/A   Overcast
11:15 AM 57.9 °F - 50.9 °F 77% 29.95 in 10.0 mi SE 9.2 mph - N/A   Overcast
11:35 AM 58.1 °F - 50.0 °F 74% 29.95 in 10.0 mi SSE 13.8 mph - N/A   Scattered Clouds
11:55 AM 56.7 °F - 48.2 °F 73% 29.95 in 10.0 mi SSE 11.5 mph 18.4 mph N/A   Mostly Cloudy
12:15 PM 55.6 °F - 48.2 °F 76% 29.95 in 10.0 mi SSE 10.4 mph - N/A Thunderstorm Overcast
12:35 PM 54.5 °F - 48.2 °F 79% 29.95 in 10.0 mi SE 8.1 mph - 0.01 in Rain , Thunderstorm Light Thunderstorms and Rain
12:55 PM 53.4 °F - 48.4 °F 83% 29.96 in 7.0 mi SSE 4.6 mph - 0.03 in Rain , Thunderstorm Rain
1:15 PM 52.9 °F - 48.4 °F 85% 29.97 in 5.0 mi Calm Calm - 0.04 in Rain Rain
1:35 PM 52.3 °F - 48.7 °F 88% 29.98 in 3.0 mi WSW 3.5 mph - 0.12 in Rain , Thunderstorm Heavy Thunderstorms and Rain
1:55 PM 51.8 °F - 48.7 °F 89% 29.99 in 2.0 mi WSW 3.5 mph - 0.24 in Rain Heavy Rain
2:15 PM 49.6 °F - 46.2 °F 88% 30.00 in 1.8 mi NNW 23.0 mph 27.6 mph 0.10 in Rain , Thunderstorm Heavy Thunderstorms and Rain
2:35 PM 43.3 °F 34.7 °F 40.1 °F 88% 30.02 in 2.0 mi NNW 20.7 mph 28.8 mph 0.17 in Rain Light Rain
2:55 PM 41.9 °F 34.0 °F 38.5 °F 88% 30.01 in 1.8 mi North 16.1 mph 24.2 mph 0.25 in   Unknown
3:15 PM 41.2 °F 33.0 °F 38.3 °F 89% 29.97 in 1.8 mi NE 16.1 mph - 0.10 in Rain Heavy Rain
3:35 PM 41.4 °F 33.3 °F 38.7 °F 90% 29.97 in 4.0 mi NNE 16.1 mph 20.7 mph 0.17 in Rain Rain
3:55 PM 40.8 °F 32.9 °F 37.4 °F 88% 30.01 in 10.0 mi NNW 15.0 mph 25.3 mph 0.17 in Rain Light Rain
4:15 PM 39.2 °F 29.0 °F 35.4 °F 86% 30.03 in 10.0 mi North 21.9 mph 29.9 mph N/A Rain Light Rain
4:35 PM 37.9 °F 27.1 °F 34.0 °F 86% 30.04 in 10.0 mi North 23.0 mph 31.1 mph N/A   Overcast
4:55 PM 37.8 °F 27.4 °F 33.8 °F 86% 30.05 in 10.0 mi North 20.7 mph 31.1 mph N/A   Light Drizzle
5:15 PM 37.8 °F 26.1 °F 33.6 °F 85% 30.05 in 10.0 mi North 26.5 mph 34.5 mph N/A   Overcast
5:35 PM 36.7 °F 25.1 °F 32.2 °F 84% 30.07 in 10.0 mi North 24.2 mph 32.2 mph N/A   Overcast
5:55 PM 36.5 °F 25.4 °F 32.0 °F 84% 30.07 in 10.0 mi North 21.9 mph 36.8 mph N/A   Overcast
6:15 PM 36.1 °F 25.5 °F 31.8 °F 84% 30.09 in 10.0 mi North 19.6 mph 29.9 mph N/A   Overcast
6:35 PM 36.0 °F 25.3 °F 31.5 °F 84% 30.10 in 10.0 mi North 19.6 mph 31.1 mph N/A   Overcast
6:55 PM 35.8 °F 25.7 °F 31.1 °F 83% 30.11 in 10.0 mi North 17.3 mph 27.6 mph N/A   Overcast
7:15 PM 35.6 °F 25.2 °F 31.1 °F 84% 30.13 in 10.0 mi North 18.4 mph 26.5 mph N/A   Overcast
7:35 PM 35.6 °F 25.9 °F 30.9 °F 83% 30.14 in 10.0 mi North 16.1 mph 28.8 mph N/A   Overcast
7:55 PM 35.4 °F 24.9 °F 30.7 °F 83% 30.12 in 10.0 mi North 18.4 mph 28.8 mph N/A   Overcast
8:15 PM 35.2 °F 25.0 °F 30.6 °F 83% 30.15 in 10.0 mi North 17.3 mph 31.1 mph N/A   Overcast
8:35 PM 35.2 °F 24.7 °F 30.2 °F 82% 30.17 in 10.0 mi North 18.4 mph 25.3 mph N/A   Overcast
8:55 PM 35.2 °F 23.8 °F 29.8 °F 81% 30.18 in 10.0 mi North 21.9 mph 31.1 mph N/A   Overcast
9:15 PM 35.2 °F 23.8 °F 30.2 °F 82% 30.20 in 10.0 mi North 21.9 mph 26.5 mph N/A   Overcast
9:35 PM 35.6 °F 25.5 °F 30.2 °F 81% 30.17 in 10.0 mi North 17.3 mph 25.3 mph N/A   Overcast
9:55 PM 35.1 °F 23.0 °F 30.0 °F 82% 30.15 in 10.0 mi NNE 24.2 mph 31.1 mph N/A   Overcast
10:15 PM 34.9 °F 23.9 °F 29.3 °F 80% 30.18 in 10.0 mi North 19.6 mph 29.9 mph N/A   Overcast
10:35 PM 34.9 °F 23.9 °F 29.3 °F 80% 30.20 in 10.0 mi North 19.6 mph 28.8 mph N/A   Overcast
10:55 PM 34.9 °F 23.3 °F 29.3 °F 80% 30.24 in 10.0 mi North 21.9 mph 29.9 mph N/A   Overcast
11:15 PM 35.1 °F 24.5 °F 29.3 °F 80% 30.26 in 10.0 mi North 18.4 mph 29.9 mph N/A   Overcast
11:35 PM 34.7 °F 23.7 °F 28.8 °F 79% 30.24 in 10.0 mi North 19.6 mph 29.9 mph N/A   Overcast
11:55 PM 34.7 °F 23.7 °F 28.9 °F 79% 30.20 in 10.0 mi North 19.6 mph 26.5 mph N/A   Overcast